datetime,flow
2001-10-01,6.0
2001-10-02,6.0
2001-10-03,6.0
2001-10-04,6.0
2001-10-05,6.9
2001-10-06,9.5
2001-10-07,7.5
2001-10-08,7.3
2001-10-09,17.0
2001-10-10,13.0
2001-10-11,12.0
2001-10-12,12.0
2001-10-13,10.0
2001-10-14,9.0
2001-10-15,8.1
2001-10-16,7.6
2001-10-17,7.7
2001-10-18,8.4
2001-10-19,8.4
2001-10-20,8.8
2001-10-21,8.7
2001-10-22,8.1
2001-10-23,8.5
2001-10-24,11.0
2001-10-25,8.8
2001-10-26,8.3
2001-10-27,9.4
2001-10-28,9.3
2001-10-29,9.8
2001-10-30,9.5
2001-10-31,29.0
2001-11-01,15.0
2001-11-02,12.0
2001-11-03,13.0
2001-11-04,13.0
2001-11-05,13.0
2001-11-06,13.0
2001-11-07,18.0
2001-11-08,15.0
2001-11-09,12.0
2001-11-10,13.0
2001-11-11,13.0
2001-11-12,13.0
2001-11-13,15.0
2001-11-14,16.0
2001-11-15,14.0
2001-11-16,15.0
2001-11-17,15.0
2001-11-18,15.0
2001-11-19,14.0
2001-11-20,15.0
2001-11-21,14.0
2001-11-22,40.0
2001-11-23,27.0
2001-11-24,16.0
2001-11-25,9.5
2001-11-26,11.0
2001-11-27,11.0
2001-11-28,9.7
2001-11-29,9.9
2001-11-30,11.0
2001-12-01,12.0
2001-12-02,13.0
2001-12-03,17.0
2001-12-04,16.0
2001-12-05,13.0
2001-12-06,15.0
2001-12-07,12.0
2001-12-08,11.0
2001-12-09,11.0
2001-12-10,11.0
2001-12-11,9.6
2001-12-12,10.0
2001-12-13,9.7
2001-12-14,11.0
2001-12-15,12.0
2001-12-16,12.0
2001-12-17,10.0
2001-12-18,12.0
2001-12-19,13.0
2001-12-20,12.0
2001-12-21,12.0
2001-12-22,12.0
2001-12-23,10.0
2001-12-24,8.9
2001-12-25,8.4
2001-12-26,8.2
2001-12-27,9.2
2001-12-28,10.0
2001-12-29,12.0
2001-12-30,12.0
2001-12-31,13.0
2002-01-01,13.0
2002-01-02,11.0
2002-01-03,12.0
2002-01-04,12.0
2002-01-05,11.0
2002-01-06,12.0
2002-01-07,12.0
2002-01-08,13.0
2002-01-09,13.0
2002-01-10,13.0
2002-01-11,13.0
2002-01-12,13.0
2002-01-13,12.0
2002-01-14,11.0
2002-01-15,9.7
2002-01-16,9.9
2002-01-17,9.5
2002-01-18,9.3
2002-01-19,9.1
2002-01-20,9.9
2002-01-21,10.0
2002-01-22,10.0
2002-01-23,10.0
2002-01-24,11.0
2002-01-25,10.0
2002-01-26,11.0
2002-01-27,11.0
2002-01-28,12.0
2002-01-29,12.0
2002-01-30,11.0
2002-01-31,12.0
2002-02-01,12.0
2002-02-02,12.0
2002-02-03,12.0
2002-02-04,11.0
2002-02-05,11.0
2002-02-06,11.0
2002-02-07,11.0
2002-02-08,12.0
2002-02-09,12.0
2002-02-10,12.0
2002-02-11,13.0
2002-02-12,13.0
2002-02-13,13.0
2002-02-14,13.0
2002-02-15,13.0
2002-02-16,13.0
2002-02-17,14.0
2002-02-18,15.0
2002-02-19,15.0
2002-02-20,16.0
2002-02-21,15.0
2002-02-22,15.0
2002-02-23,16.0
2002-02-24,16.0
2002-02-25,14.0
2002-02-26,13.0
2002-02-27,15.0
2002-02-28,15.0
2002-03-01,14.0
2002-03-02,13.0
2002-03-03,13.0
2002-03-04,13.0
2002-03-05,14.0
2002-03-06,15.0
2002-03-07,16.0
2002-03-08,14.0
2002-03-09,14.0
2002-03-10,16.0
2002-03-11,16.0
2002-03-12,17.0
2002-03-13,25.0
2002-03-14,20.0
2002-03-15,19.0
2002-03-16,17.0
2002-03-17,17.0
2002-03-18,16.0
2002-03-19,16.0
2002-03-20,17.0
2002-03-21,19.0
2002-03-22,22.0
2002-03-23,32.0
2002-03-24,42.0
2002-03-25,35.0
2002-03-26,36.0
2002-03-27,45.0
2002-03-28,60.0
2002-03-29,83.0
2002-03-30,117.0
2002-03-31,131.0
2002-04-01,139.0
2002-04-02,133.0
2002-04-03,106.0
2002-04-04,89.0
2002-04-05,84.0
2002-04-06,78.0
2002-04-07,69.0
2002-04-08,62.0
2002-04-09,57.0
2002-04-10,65.0
2002-04-11,60.0
2002-04-12,58.0
2002-04-13,54.0
2002-04-14,54.0
2002-04-15,55.0
2002-04-16,63.0
2002-04-17,62.0
2002-04-18,57.0
2002-04-19,64.0
2002-04-20,70.0
2002-04-21,64.0
2002-04-22,61.0
2002-04-23,56.0
2002-04-24,51.0
2002-04-25,49.0
2002-04-26,50.0
2002-04-27,58.0
2002-04-28,57.0
2002-04-29,52.0
2002-04-30,49.0
2002-05-01,49.0
2002-05-02,47.0
2002-05-03,48.0
2002-05-04,48.0
2002-05-05,47.0
2002-05-06,47.0
2002-05-07,51.0
2002-05-08,55.0
2002-05-09,56.0
2002-05-10,57.0
2002-05-11,67.0
2002-05-12,57.0
2002-05-13,46.0
2002-05-14,47.0
2002-05-15,53.0
2002-05-16,51.0
2002-05-17,55.0
2002-05-18,57.0
2002-05-19,63.0
2002-05-20,67.0
2002-05-21,80.0
2002-05-22,96.0
2002-05-23,83.0
2002-05-24,72.0
2002-05-25,62.0
2002-05-26,52.0
2002-05-27,46.0
2002-05-28,45.0
2002-05-29,49.0
2002-05-30,50.0
2002-05-31,51.0
2002-06-01,55.0
2002-06-02,61.0
2002-06-03,59.0
2002-06-04,51.0
2002-06-05,47.0
2002-06-06,40.0
2002-06-07,33.0
2002-06-08,34.0
2002-06-09,33.0
2002-06-10,31.0
2002-06-11,28.0
2002-06-12,26.0
2002-06-13,22.0
2002-06-14,21.0
2002-06-15,19.0
2002-06-16,17.0
2002-06-17,15.0
2002-06-18,15.0
2002-06-19,14.0
2002-06-20,14.0
2002-06-21,14.0
2002-06-22,13.0
2002-06-23,14.0
2002-06-24,14.0
2002-06-25,12.0
2002-06-26,13.0
2002-06-27,11.0
2002-06-28,11.0
2002-06-29,9.2
2002-06-30,9.2
2002-07-01,8.6
2002-07-02,8.1
2002-07-03,8.4
2002-07-04,11.0
2002-07-05,9.9
2002-07-06,9.3
2002-07-07,8.7
2002-07-08,7.9
2002-07-09,7.7
2002-07-10,7.0
2002-07-11,7.2
2002-07-12,6.5
2002-07-13,6.5
2002-07-14,5.4
2002-07-15,6.8
2002-07-16,6.8
2002-07-17,8.8
2002-07-18,10.0
2002-07-19,11.0
2002-07-20,9.1
2002-07-21,8.5
2002-07-22,7.9
2002-07-23,9.0
2002-07-24,8.6
2002-07-25,8.6
2002-07-26,8.6
2002-07-27,7.9
2002-07-28,7.7
2002-07-29,7.2
2002-07-30,6.3
2002-07-31,4.9
2002-08-01,5.5
2002-08-02,6.9
2002-08-03,6.6
2002-08-04,6.5
2002-08-05,6.0
2002-08-06,5.4
2002-08-07,4.0
2002-08-08,4.3
2002-08-09,4.9
2002-08-10,4.8
2002-08-11,5.1
2002-08-12,4.9
2002-08-13,4.0
2002-08-14,2.2
2002-08-15,3.7
2002-08-16,3.3
2002-08-17,2.7
2002-08-18,3.5
2002-08-19,3.0
2002-08-20,2.9
2002-08-21,4.9
2002-08-22,4.6
2002-08-23,4.2
2002-08-24,4.3
2002-08-25,4.5
2002-08-26,4.6
2002-08-27,4.4
2002-08-28,5.2
2002-08-29,3.9
2002-08-30,4.4
2002-08-31,4.2
2002-09-01,3.7
2002-09-02,3.2
2002-09-03,3.2
2002-09-04,4.4
2002-09-05,6.2
2002-09-06,8.3
2002-09-07,11.0
2002-09-08,12.0
2002-09-09,8.6
2002-09-10,6.8
2002-09-11,6.7
2002-09-12,8.4
2002-09-13,7.8
2002-09-14,7.2
2002-09-15,7.1
2002-09-16,7.5
2002-09-17,10.0
2002-09-18,16.0
2002-09-19,10.0
2002-09-20,9.5
2002-09-21,9.2
2002-09-22,8.3
2002-09-23,7.9
2002-09-24,7.8
2002-09-25,7.0
2002-09-26,8.9
2002-09-27,9.3
2002-09-28,9.4
2002-09-29,9.7
2002-09-30,11.0
2002-10-01,25.0
2002-10-02,26.0
2002-10-03,15.0
2002-10-04,13.0
2002-10-05,12.0
2002-10-06,12.0
2002-10-07,12.0
2002-10-08,10.0
2002-10-09,11.0
2002-10-10,11.0
2002-10-11,11.0
2002-10-12,11.0
2002-10-13,11.0
2002-10-14,11.0
2002-10-15,10.0
2002-10-16,8.5
2002-10-17,10.0
2002-10-18,10.0
2002-10-19,9.6
2002-10-20,11.0
2002-10-21,9.9
2002-10-22,11.0
2002-10-23,12.0
2002-10-24,12.0
2002-10-25,12.0
2002-10-26,11.0
2002-10-27,11.0
2002-10-28,10.0
2002-10-29,11.0
2002-10-30,10.0
2002-10-31,9.4
2002-11-01,9.9
2002-11-02,8.6
2002-11-03,8.3
2002-11-04,8.5
2002-11-05,9.6
2002-11-06,10.0
2002-11-07,11.0
2002-11-08,16.0
2002-11-09,23.0
2002-11-10,16.0
2002-11-11,15.0
2002-11-12,13.0
2002-11-13,13.0
2002-11-14,14.0
2002-11-15,13.0
2002-11-16,11.0
2002-11-17,12.0
2002-11-18,12.0
2002-11-19,11.0
2002-11-20,12.0
2002-11-21,13.0
2002-11-22,13.0
2002-11-23,13.0
2002-11-24,15.0
2002-11-25,13.0
2002-11-26,10.0
2002-11-27,9.7
2002-11-28,11.0
2002-11-29,13.0
2002-11-30,13.0
2002-12-01,14.0
2002-12-02,14.0
2002-12-03,13.0
2002-12-04,13.0
2002-12-05,13.0
2002-12-06,13.0
2002-12-07,12.0
2002-12-08,13.0
2002-12-09,11.0
2002-12-10,11.0
2002-12-11,11.0
2002-12-12,11.0
2002-12-13,11.0
2002-12-14,13.0
2002-12-15,14.0
2002-12-16,12.0
2002-12-17,12.0
2002-12-18,10.0
2002-12-19,11.0
2002-12-20,11.0
2002-12-21,11.0
2002-12-22,12.0
2002-12-23,11.0
2002-12-24,11.0
2002-12-25,10.0
2002-12-26,10.0
2002-12-27,11.0
2002-12-28,12.0
2002-12-29,13.0
2002-12-30,14.0
2002-12-31,14.0
2003-01-01,15.0
2003-01-02,13.0
2003-01-03,14.0
2003-01-04,15.0
2003-01-05,15.0
2003-01-06,14.0
2003-01-07,12.0
2003-01-08,12.0
2003-01-09,12.0
2003-01-10,13.0
2003-01-11,14.0
2003-01-12,13.0
2003-01-13,13.0
2003-01-14,13.0
2003-01-15,13.0
2003-01-16,12.0
2003-01-17,13.0
2003-01-18,13.0
2003-01-19,12.0
2003-01-20,12.0
2003-01-21,13.0
2003-01-22,13.0
2003-01-23,15.0
2003-01-24,14.0
2003-01-25,14.0
2003-01-26,14.0
2003-01-27,16.0
2003-01-28,26.0
2003-01-29,19.0
2003-01-30,18.0
2003-01-31,29.0
2003-02-01,24.0
2003-02-02,28.0
2003-02-03,19.0
2003-02-04,17.0
2003-02-05,13.0
2003-02-06,13.0
2003-02-07,12.0
2003-02-08,12.0
2003-02-09,12.0
2003-02-10,12.0
2003-02-11,11.0
2003-02-12,11.0
2003-02-13,15.0
2003-02-14,28.0
2003-02-15,27.0
2003-02-16,24.0
2003-02-17,21.0
2003-02-18,18.0
2003-02-19,17.0
2003-02-20,16.0
2003-02-21,16.0
2003-02-22,16.0
2003-02-23,16.0
2003-02-24,14.0
2003-02-25,15.0
2003-02-26,16.0
2003-02-27,15.0
2003-02-28,15.0
2003-03-01,15.0
2003-03-02,15.0
2003-03-03,15.0
2003-03-04,16.0
2003-03-05,16.0
2003-03-06,17.0
2003-03-07,17.0
2003-03-08,20.0
2003-03-09,26.0
2003-03-10,32.0
2003-03-11,35.0
2003-03-12,36.0
2003-03-13,34.0
2003-03-14,38.0
2003-03-15,38.0
2003-03-16,66.0
2003-03-17,49.0
2003-03-18,37.0
2003-03-19,32.0
2003-03-20,36.0
2003-03-21,33.0
2003-03-22,28.0
2003-03-23,29.0
2003-03-24,29.0
2003-03-25,26.0
2003-03-26,36.0
2003-03-27,40.0
2003-03-28,35.0
2003-03-29,32.0
2003-03-30,28.0
2003-03-31,27.0
2003-04-01,27.0
2003-04-02,26.0
2003-04-03,30.0
2003-04-04,28.0
2003-04-05,29.0
2003-04-06,30.0
2003-04-07,31.0
2003-04-08,29.0
2003-04-09,26.0
2003-04-10,27.0
2003-04-11,28.0
2003-04-12,29.0
2003-04-13,29.0
2003-04-14,29.0
2003-04-15,33.0
2003-04-16,30.0
2003-04-17,29.0
2003-04-18,46.0
2003-04-19,42.0
2003-04-20,35.0
2003-04-21,31.0
2003-04-22,32.0
2003-04-23,32.0
2003-04-24,30.0
2003-04-25,29.0
2003-04-26,29.0
2003-04-27,29.0
2003-04-28,29.0
2003-04-29,27.0
2003-04-30,26.0
2003-05-01,27.0
2003-05-02,28.0
2003-05-03,28.0
2003-05-04,36.0
2003-05-05,39.0
2003-05-06,30.0
2003-05-07,31.0
2003-05-08,38.0
2003-05-09,34.0
2003-05-10,37.0
2003-05-11,32.0
2003-05-12,28.0
2003-05-13,25.0
2003-05-14,26.0
2003-05-15,27.0
2003-05-16,28.0
2003-05-17,30.0
2003-05-18,31.0
2003-05-19,31.0
2003-05-20,32.0
2003-05-21,31.0
2003-05-22,32.0
2003-05-23,37.0
2003-05-24,41.0
2003-05-25,42.0
2003-05-26,43.0
2003-05-27,46.0
2003-05-28,44.0
2003-05-29,42.0
2003-05-30,40.0
2003-05-31,35.0
2003-06-01,32.0
2003-06-02,30.0
2003-06-03,25.0
2003-06-04,22.0
2003-06-05,21.0
2003-06-06,21.0
2003-06-07,19.0
2003-06-08,18.0
2003-06-09,17.0
2003-06-10,17.0
2003-06-11,15.0
2003-06-12,15.0
2003-06-13,15.0
2003-06-14,14.0
2003-06-15,15.0
2003-06-16,13.0
2003-06-17,12.0
2003-06-18,17.0
2003-06-19,13.0
2003-06-20,9.6
2003-06-21,13.0
2003-06-22,18.0
2003-06-23,45.0
2003-06-24,54.0
2003-06-25,32.0
2003-06-26,20.0
2003-06-27,17.0
2003-06-28,14.0
2003-06-29,13.0
2003-06-30,12.0
2003-07-01,12.0
2003-07-02,11.0
2003-07-03,9.8
2003-07-04,9.1
2003-07-05,8.5
2003-07-06,8.7
2003-07-07,9.1
2003-07-08,8.5
2003-07-09,7.9
2003-07-10,8.0
2003-07-11,8.2
2003-07-12,8.1
2003-07-13,7.6
2003-07-14,7.3
2003-07-15,7.2
2003-07-16,7.1
2003-07-17,7.0
2003-07-18,6.7
2003-07-19,6.5
2003-07-20,7.1
2003-07-21,6.4
2003-07-22,5.4
2003-07-23,5.5
2003-07-24,5.9
2003-07-25,6.8
2003-07-26,8.1
2003-07-27,7.7
2003-07-28,7.0
2003-07-29,5.5
2003-07-30,4.9
2003-07-31,5.0
2003-08-01,4.4
2003-08-02,4.7
2003-08-03,5.0
2003-08-04,4.4
2003-08-05,4.0
2003-08-06,3.9
2003-08-07,4.4
2003-08-08,4.1
2003-08-09,4.1
2003-08-10,4.1
2003-08-11,4.1
2003-08-12,3.8
2003-08-13,3.0
2003-08-14,3.0
2003-08-15,3.2
2003-08-16,3.5
2003-08-17,3.8
2003-08-18,4.0
2003-08-19,3.3
2003-08-20,3.1
2003-08-21,3.1
2003-08-22,3.6
2003-08-23,3.8
2003-08-24,4.0
2003-08-25,4.6
2003-08-26,3.6
2003-08-27,3.8
2003-08-28,3.7
2003-08-29,3.8
2003-08-30,4.2
2003-08-31,3.7
2003-09-01,4.0
2003-09-02,4.1
2003-09-03,4.1
2003-09-04,3.8
2003-09-05,3.9
2003-09-06,4.2
2003-09-07,5.1
2003-09-08,5.3
2003-09-09,5.1
2003-09-10,10.0
2003-09-11,7.1
2003-09-12,6.2
2003-09-13,6.0
2003-09-14,6.0
2003-09-15,6.1
2003-09-16,6.0
2003-09-17,6.3
2003-09-18,6.9
2003-09-19,6.9
2003-09-20,6.9
2003-09-21,6.7
2003-09-22,6.6
2003-09-23,6.5
2003-09-24,6.4
2003-09-25,6.2
2003-09-26,6.5
2003-09-27,6.9
2003-09-28,6.8
2003-09-29,6.6
2003-09-30,6.5
2003-10-01,6.7
2003-10-02,6.5
2003-10-03,7.0
2003-10-04,7.5
2003-10-05,7.7
2003-10-06,7.1
2003-10-07,7.0
2003-10-08,6.9
2003-10-09,6.8
2003-10-10,6.7
2003-10-11,6.6
2003-10-12,7.1
2003-10-13,7.5
2003-10-14,7.1
2003-10-15,7.1
2003-10-16,7.9
2003-10-17,7.7
2003-10-18,7.5
2003-10-19,7.3
2003-10-20,7.2
2003-10-21,6.9
2003-10-22,6.9
2003-10-23,7.1
2003-10-24,6.9
2003-10-25,5.7
2003-10-26,5.7
2003-10-27,5.7
2003-10-28,5.5
2003-10-29,6.2
2003-10-30,8.1
2003-10-31,7.9
2003-11-01,9.6
2003-11-02,9.6
2003-11-03,11.0
2003-11-04,10.0
2003-11-05,9.8
2003-11-06,8.6
2003-11-07,8.1
2003-11-08,8.9
2003-11-09,11.0
2003-11-10,13.0
2003-11-11,12.0
2003-11-12,11.0
2003-11-13,12.0
2003-11-14,14.0
2003-11-15,11.0
2003-11-16,11.0
2003-11-17,12.0
2003-11-18,9.5
2003-11-19,11.0
2003-11-20,11.0
2003-11-21,11.0
2003-11-22,9.7
2003-11-23,9.0
2003-11-24,9.1
2003-11-25,9.3
2003-11-26,9.5
2003-11-27,9.9
2003-11-28,10.0
2003-11-29,11.0
2003-11-30,12.0
2003-12-01,12.0
2003-12-02,11.0
2003-12-03,10.0
2003-12-04,10.0
2003-12-05,10.0
2003-12-06,11.0
2003-12-07,15.0
2003-12-08,14.0
2003-12-09,11.0
2003-12-10,12.0
2003-12-11,11.0
2003-12-12,11.0
2003-12-13,12.0
2003-12-14,12.0
2003-12-15,11.0
2003-12-16,12.0
2003-12-17,11.0
2003-12-18,11.0
2003-12-19,11.0
2003-12-20,12.0
2003-12-21,13.0
2003-12-22,13.0
2003-12-23,12.0
2003-12-24,13.0
2003-12-25,14.0
2003-12-26,14.0
2003-12-27,13.0
2003-12-28,15.0
2003-12-29,13.0
2003-12-30,12.0
2003-12-31,16.0
2004-01-01,14.0
2004-01-02,11.0
2004-01-03,16.0
2004-01-04,15.0
2004-01-05,13.0
2004-01-06,14.0
2004-01-07,14.0
2004-01-08,14.0
2004-01-09,13.0
2004-01-10,13.0
2004-01-11,13.0
2004-01-12,13.0
2004-01-13,13.0
2004-01-14,14.0
2004-01-15,14.0
2004-01-16,15.0
2004-01-17,16.0
2004-01-18,16.0
2004-01-19,17.0
2004-01-20,17.0
2004-01-21,17.0
2004-01-22,15.0
2004-01-23,15.0
2004-01-24,17.0
2004-01-25,15.0
2004-01-26,15.0
2004-01-27,15.0
2004-01-28,17.0
2004-01-29,17.0
2004-01-30,17.0
2004-01-31,18.0
2004-02-01,16.0
2004-02-02,17.0
2004-02-03,16.0
2004-02-04,17.0
2004-02-05,17.0
2004-02-06,16.0
2004-02-07,16.0
2004-02-08,17.0
2004-02-09,17.0
2004-02-10,15.0
2004-02-11,17.0
2004-02-12,15.0
2004-02-13,16.0
2004-02-14,16.0
2004-02-15,17.0
2004-02-16,18.0
2004-02-17,17.0
2004-02-18,19.0
2004-02-19,20.0
2004-02-20,20.0
2004-02-21,20.0
2004-02-22,19.0
2004-02-23,20.0
2004-02-24,20.0
2004-02-25,21.0
2004-02-26,23.0
2004-02-27,23.0
2004-02-28,23.0
2004-02-29,23.0
2004-03-01,21.0
2004-03-02,21.0
2004-03-03,21.0
2004-03-04,21.0
2004-03-05,21.0
2004-03-06,22.0
2004-03-07,23.0
2004-03-08,23.0
2004-03-09,27.0
2004-03-10,32.0
2004-03-11,33.0
2004-03-12,34.0
2004-03-13,39.0
2004-03-14,45.0
2004-03-15,54.0
2004-03-16,59.0
2004-03-17,77.0
2004-03-18,88.0
2004-03-19,121.0
2004-03-20,141.0
2004-03-21,135.0
2004-03-22,143.0
2004-03-23,145.0
2004-03-24,121.0
2004-03-25,101.0
2004-03-26,137.0
2004-03-27,94.0
2004-03-28,76.0
2004-03-29,64.0
2004-03-30,58.0
2004-03-31,59.0
2004-04-01,62.0
2004-04-02,62.0
2004-04-03,61.0
2004-04-04,59.0
2004-04-05,57.0
2004-04-06,57.0
2004-04-07,61.0
2004-04-08,83.0
2004-04-09,73.0
2004-04-10,63.0
2004-04-11,51.0
2004-04-12,47.0
2004-04-13,44.0
2004-04-14,42.0
2004-04-15,43.0
2004-04-16,42.0
2004-04-17,40.0
2004-04-18,62.0
2004-04-19,55.0
2004-04-20,51.0
2004-04-21,72.0
2004-04-22,59.0
2004-04-23,47.0
2004-04-24,43.0
2004-04-25,41.0
2004-04-26,39.0
2004-04-27,38.0
2004-04-28,40.0
2004-04-29,41.0
2004-04-30,40.0
2004-05-01,37.0
2004-05-02,35.0
2004-05-03,34.0
2004-05-04,35.0
2004-05-05,37.0
2004-05-06,44.0
2004-05-07,48.0
2004-05-08,48.0
2004-05-09,49.0
2004-05-10,50.0
2004-05-11,53.0
2004-05-12,55.0
2004-05-13,55.0
2004-05-14,44.0
2004-05-15,39.0
2004-05-16,37.0
2004-05-17,36.0
2004-05-18,36.0
2004-05-19,37.0
2004-05-20,39.0
2004-05-21,37.0
2004-05-22,27.0
2004-05-23,32.0
2004-05-24,33.0
2004-05-25,35.0
2004-05-26,35.0
2004-05-27,31.0
2004-05-28,34.0
2004-05-29,56.0
2004-05-30,39.0
2004-05-31,34.0
2004-06-01,30.0
2004-06-02,25.0
2004-06-03,22.0
2004-06-04,20.0
2004-06-05,22.0
2004-06-06,24.0
2004-06-07,24.0
2004-06-08,22.0
2004-06-09,23.0
2004-06-10,32.0
2004-06-11,33.0
2004-06-12,28.0
2004-06-13,25.0
2004-06-14,21.0
2004-06-15,17.0
2004-06-16,14.0
2004-06-17,14.0
2004-06-18,16.0
2004-06-19,15.0
2004-06-20,15.0
2004-06-21,14.0
2004-06-22,13.0
2004-06-23,13.0
2004-06-24,13.0
2004-06-25,14.0
2004-06-26,12.0
2004-06-27,13.0
2004-06-28,14.0
2004-06-29,16.0
2004-06-30,16.0
2004-07-01,14.0
2004-07-02,13.0
2004-07-03,13.0
2004-07-04,12.0
2004-07-05,12.0
2004-07-06,11.0
2004-07-07,11.0
2004-07-08,10.0
2004-07-09,9.9
2004-07-10,10.0
2004-07-11,8.7
2004-07-12,9.1
2004-07-13,8.7
2004-07-14,9.3
2004-07-15,8.8
2004-07-16,13.0
2004-07-17,16.0
2004-07-18,32.0
2004-07-19,13.0
2004-07-20,13.0
2004-07-21,21.0
2004-07-22,13.0
2004-07-23,10.0
2004-07-24,9.0
2004-07-25,8.7
2004-07-26,8.7
2004-07-27,8.3
2004-07-28,7.6
2004-07-29,7.5
2004-07-30,7.5
2004-07-31,6.9
2004-08-01,6.7
2004-08-02,7.4
2004-08-03,8.0
2004-08-04,8.1
2004-08-05,7.7
2004-08-06,7.5
2004-08-07,6.9
2004-08-08,6.1
2004-08-09,6.4
2004-08-10,6.1
2004-08-11,6.1
2004-08-12,5.8
2004-08-13,5.9
2004-08-14,6.1
2004-08-15,6.4
2004-08-16,6.8
2004-08-17,6.6
2004-08-18,7.1
2004-08-19,7.7
2004-08-20,7.0
2004-08-21,7.6
2004-08-22,7.4
2004-08-23,6.8
2004-08-24,9.2
2004-08-25,7.8
2004-08-26,6.5
2004-08-27,6.6
2004-08-28,7.6
2004-08-29,7.6
2004-08-30,6.8
2004-08-31,5.4
2004-09-01,5.1
2004-09-02,5.3
2004-09-03,7.4
2004-09-04,8.4
2004-09-05,7.8
2004-09-06,7.5
2004-09-07,7.3
2004-09-08,6.3
2004-09-09,6.5
2004-09-10,6.4
2004-09-11,6.3
2004-09-12,6.6
2004-09-13,8.2
2004-09-14,7.5
2004-09-15,6.2
2004-09-16,5.9
2004-09-17,6.6
2004-09-18,7.3
2004-09-19,6.0
2004-09-20,8.4
2004-09-21,8.6
2004-09-22,10.0
2004-09-23,8.5
2004-09-24,8.7
2004-09-25,9.3
2004-09-26,7.1
2004-09-27,8.8
2004-09-28,8.3
2004-09-29,8.1
2004-09-30,8.9
2004-10-01,9.4
2004-10-02,9.1
2004-10-03,8.7
2004-10-04,7.7
2004-10-05,8.7
2004-10-06,7.0
2004-10-07,7.8
2004-10-08,9.0
2004-10-09,7.7
2004-10-10,9.2
2004-10-11,9.1
2004-10-12,8.4
2004-10-13,8.3
2004-10-14,8.2
2004-10-15,8.5
2004-10-16,9.2
2004-10-17,8.2
2004-10-18,15.0
2004-10-19,18.0
2004-10-20,66.0
2004-10-21,55.0
2004-10-22,36.0
2004-10-23,34.0
2004-10-24,57.0
2004-10-25,41.0
2004-10-26,37.0
2004-10-27,30.0
2004-10-28,43.0
2004-10-29,32.0
2004-10-30,28.0
2004-10-31,32.0
2004-11-01,25.0
2004-11-02,20.0
2004-11-03,21.0
2004-11-04,27.0
2004-11-05,24.0
2004-11-06,23.0
2004-11-07,22.0
2004-11-08,23.0
2004-11-09,28.0
2004-11-10,33.0
2004-11-11,29.0
2004-11-12,36.0
2004-11-13,29.0
2004-11-14,25.0
2004-11-15,24.0
2004-11-16,23.0
2004-11-17,25.0
2004-11-18,22.0
2004-11-19,19.0
2004-11-20,17.0
2004-11-21,15.0
2004-11-22,15.0
2004-11-23,15.0
2004-11-24,15.0
2004-11-25,17.0
2004-11-26,20.0
2004-11-27,16.0
2004-11-28,15.0
2004-11-29,14.0
2004-11-30,12.0
2004-12-01,13.0
2004-12-02,11.0
2004-12-03,11.0
2004-12-04,11.0
2004-12-05,13.0
2004-12-06,13.0
2004-12-07,12.0
2004-12-08,13.0
2004-12-09,38.0
2004-12-10,47.0
2004-12-11,37.0
2004-12-12,30.0
2004-12-13,25.0
2004-12-14,22.0
2004-12-15,21.0
2004-12-16,19.0
2004-12-17,17.0
2004-12-18,17.0
2004-12-19,18.0
2004-12-20,18.0
2004-12-21,16.0
2004-12-22,14.0
2004-12-23,15.0
2004-12-24,14.0
2004-12-25,13.0
2004-12-26,14.0
2004-12-27,16.0
2004-12-28,19.0
2004-12-29,22.0
2004-12-30,22.0
2004-12-31,21.0
2005-01-01,20.0
2005-01-02,20.0
2005-01-03,19.0
2005-01-04,20.0
2005-01-05,18.0
2005-01-06,18.0
2005-01-07,15.0
2005-01-08,13.0
2005-01-09,18.0
2005-01-10,32.0
2005-01-11,38.0
2005-01-12,31.0
2005-01-13,25.0
2005-01-14,24.0
2005-01-15,25.0
2005-01-16,24.0
2005-01-17,24.0
2005-01-18,23.0
2005-01-19,24.0
2005-01-20,25.0
2005-01-21,25.0
2005-01-22,25.0
2005-01-23,25.0
2005-01-24,24.0
2005-01-25,24.0
2005-01-26,24.0
2005-01-27,26.0
2005-01-28,26.0
2005-01-29,26.0
2005-01-30,26.0
2005-01-31,25.0
2005-02-01,24.0
2005-02-02,23.0
2005-02-03,23.0
2005-02-04,24.0
2005-02-05,24.0
2005-02-06,24.0
2005-02-07,25.0
2005-02-08,23.0
2005-02-09,22.0
2005-02-10,23.0
2005-02-11,24.0
2005-02-12,24.0
2005-02-13,25.0
2005-02-14,29.0
2005-02-15,31.0
2005-02-16,27.0
2005-02-17,24.0
2005-02-18,27.0
2005-02-19,29.0
2005-02-20,31.0
2005-02-21,30.0
2005-02-22,28.0
2005-02-23,28.0
2005-02-24,27.0
2005-02-25,27.0
2005-02-26,27.0
2005-02-27,27.0
2005-02-28,27.0
2005-03-01,26.0
2005-03-02,27.0
2005-03-03,29.0
2005-03-04,31.0
2005-03-05,33.0
2005-03-06,37.0
2005-03-07,43.0
2005-03-08,54.0
2005-03-09,78.0
2005-03-10,102.0
2005-03-11,105.0
2005-03-12,111.0
2005-03-13,105.0
2005-03-14,72.0
2005-03-15,56.0
2005-03-16,56.0
2005-03-17,55.0
2005-03-18,54.0
2005-03-19,66.0
2005-03-20,78.0
2005-03-21,69.0
2005-03-22,63.0
2005-03-23,109.0
2005-03-24,91.0
2005-03-25,78.0
2005-03-26,76.0
2005-03-27,69.0
2005-03-28,82.0
2005-03-29,89.0
2005-03-30,80.0
2005-03-31,74.0
2005-04-01,77.0
2005-04-02,79.0
2005-04-03,87.0
2005-04-04,92.0
2005-04-05,79.0
2005-04-06,76.0
2005-04-07,94.0
2005-04-08,128.0
2005-04-09,95.0
2005-04-10,76.0
2005-04-11,71.0
2005-04-12,75.0
2005-04-13,84.0
2005-04-14,85.0
2005-04-15,77.0
2005-04-16,78.0
2005-04-17,83.0
2005-04-18,90.0
2005-04-19,91.0
2005-04-20,98.0
2005-04-21,87.0
2005-04-22,77.0
2005-04-23,75.0
2005-04-24,92.0
2005-04-25,94.0
2005-04-26,90.0
2005-04-27,94.0
2005-04-28,133.0
2005-04-29,150.0
2005-04-30,116.0
2005-05-01,105.0
2005-05-02,98.0
2005-05-03,92.0
2005-05-04,88.0
2005-05-05,95.0
2005-05-06,139.0
2005-05-07,149.0
2005-05-08,132.0
2005-05-09,125.0
2005-05-10,156.0
2005-05-11,207.0
2005-05-12,177.0
2005-05-13,142.0
2005-05-14,122.0
2005-05-15,118.0
2005-05-16,125.0
2005-05-17,156.0
2005-05-18,149.0
2005-05-19,138.0
2005-05-20,145.0
2005-05-21,159.0
2005-05-22,179.0
2005-05-23,198.0
2005-05-24,212.0
2005-05-25,208.0
2005-05-26,196.0
2005-05-27,181.0
2005-05-28,169.0
2005-05-29,167.0
2005-05-30,205.0
2005-05-31,177.0
2005-06-01,179.0
2005-06-02,160.0
2005-06-03,151.0
2005-06-04,137.0
2005-06-05,127.0
2005-06-06,136.0
2005-06-07,151.0
2005-06-08,139.0
2005-06-09,134.0
2005-06-10,117.0
2005-06-11,107.0
2005-06-12,117.0
2005-06-13,102.0
2005-06-14,95.0
2005-06-15,94.0
2005-06-16,97.0
2005-06-17,100.0
2005-06-18,101.0
2005-06-19,101.0
2005-06-20,101.0
2005-06-21,102.0
2005-06-22,102.0
2005-06-23,98.0
2005-06-24,93.0
2005-06-25,87.0
2005-06-26,81.0
2005-06-27,75.0
2005-06-28,72.0
2005-06-29,71.0
2005-06-30,63.0
2005-07-01,58.0
2005-07-02,55.0
2005-07-03,54.0
2005-07-04,50.0
2005-07-05,46.0
2005-07-06,44.0
2005-07-07,37.0
2005-07-08,30.0
2005-07-09,27.0
2005-07-10,27.0
2005-07-11,26.0
2005-07-12,27.0
2005-07-13,25.0
2005-07-14,25.0
2005-07-15,23.0
2005-07-16,22.0
2005-07-17,21.0
2005-07-18,19.0
2005-07-19,19.0
2005-07-20,18.0
2005-07-21,18.0
2005-07-22,18.0
2005-07-23,18.0
2005-07-24,18.0
2005-07-25,18.0
2005-07-26,17.0
2005-07-27,16.0
2005-07-28,16.0
2005-07-29,15.0
2005-07-30,15.0
2005-07-31,17.0
2005-08-01,16.0
2005-08-02,19.0
2005-08-03,17.0
2005-08-04,15.0
2005-08-05,14.0
2005-08-06,14.0
2005-08-07,14.0
2005-08-08,13.0
2005-08-09,14.0
2005-08-10,13.0
2005-08-11,13.0
2005-08-12,13.0
2005-08-13,13.0
2005-08-14,12.0
2005-08-15,14.0
2005-08-16,17.0
2005-08-17,17.0
2005-08-18,15.0
2005-08-19,14.0
2005-08-20,15.0
2005-08-21,13.0
2005-08-22,13.0
2005-08-23,13.0
2005-08-24,13.0
2005-08-25,12.0
2005-08-26,12.0
2005-08-27,12.0
2005-08-28,12.0
2005-08-29,11.0
2005-08-30,10.0
2005-08-31,11.0
2005-09-01,11.0
2005-09-02,11.0
2005-09-03,11.0
2005-09-04,12.0
2005-09-05,13.0
2005-09-06,11.0
2005-09-07,9.1
2005-09-08,9.6
2005-09-09,11.0
2005-09-10,12.0
2005-09-11,11.0
2005-09-12,13.0
2005-09-13,13.0
2005-09-14,12.0
2005-09-15,12.0
2005-09-16,12.0
2005-09-17,12.0
2005-09-18,12.0
2005-09-19,12.0
2005-09-20,12.0
2005-09-21,14.0
2005-09-22,15.0
2005-09-23,15.0
2005-09-24,13.0
2005-09-25,14.0
2005-09-26,13.0
2005-09-27,16.0
2005-09-28,17.0
2005-09-29,15.0
2005-09-30,15.0
2005-10-01,14.0
2005-10-02,14.0
2005-10-03,14.0
2005-10-04,15.0
2005-10-05,17.0
2005-10-06,15.0
2005-10-07,14.0
2005-10-08,15.0
2005-10-09,15.0
2005-10-10,14.0
2005-10-11,13.0
2005-10-12,12.0
2005-10-13,16.0
2005-10-14,16.0
2005-10-15,17.0
2005-10-16,17.0
2005-10-17,20.0
2005-10-18,20.0
2005-10-19,21.0
2005-10-20,21.0
2005-10-21,22.0
2005-10-22,22.0
2005-10-23,30.0
2005-10-24,29.0
2005-10-25,26.0
2005-10-26,21.0
2005-10-27,21.0
2005-10-28,26.0
2005-10-29,24.0
2005-10-30,23.0
2005-10-31,19.0
2005-11-01,19.0
2005-11-02,18.0
2005-11-03,18.0
2005-11-04,23.0
2005-11-05,25.0
2005-11-06,23.0
2005-11-07,22.0
2005-11-08,21.0
2005-11-09,21.0
2005-11-10,20.0
2005-11-11,20.0
2005-11-12,22.0
2005-11-13,21.0
2005-11-14,38.0
2005-11-15,25.0
2005-11-16,19.0
2005-11-17,16.0
2005-11-18,18.0
2005-11-19,18.0
2005-11-20,18.0
2005-11-21,19.0
2005-11-22,18.0
2005-11-23,18.0
2005-11-24,18.0
2005-11-25,18.0